Lewis Run, PA

9:49 AM EST on February 23, 2017 (GMT -0500)
Bradford Regional

Weather History for KBFD - August, 2013

Change the Weather History Date:

Saturday, August 31, 2013

  Actual Average Record
Temperature  
Mean Temperature 74 °F 62 °F  
Max Temperature 83 °F 73 °F 87 °F (1993)
Min Temperature 64 °F 50 °F 31 °F (1976)
Degree Days  
Heating Degree Days 0 1  
Month to date heating degree days 84 23  
Since 1 June heating degree days 240 298  
Since 1 July heating degree days 136 153  
Cooling Degree Days 9 1  
Month to date cooling degree days 54 53  
Year to date cooling degree days 295 177  
Since 1 June cooling degree days 252 167  
Growing Degree Days 26 (Base 50)    
Moisture  
Dew Point 66 °F    
Average Humidity 76    
Maximum Humidity 93    
Minimum Humidity 58    
Precipitation  
Precipitation T in 0.12 in 1.67 in (2005)
Month to date precipitation 3.15 4.11  
Year to date precipitation 21.41 29.95  
Sea Level Pressure  
Sea Level Pressure 29.83 in    
Wind  
Wind Speed 6 mph (WSW)    
Max Wind Speed 15 mph    
Max Gust Speed 20 mph    
Visibility 7 miles    
Events      
T = Trace of Precipitation, MM = Missing Value Source: NWS Daily Summary

Daily Weather History Graph

Daily Weather History Graph

Search for Another Location

Airport or City:

Trip Planner

Search our weather history database for the weather conditions in past years. The results will help you decide how hot, cold, wet, or windy it might be!

Date:

Astronomy

Aug. 31, 2013 Rise Set
Actual Time 6:39 AM EDT 7:49 PM EDT
Civil Twilight 6:10 AM EDT 8:17 PM EDT
Nautical Twilight 5:36 AM EDT 8:51 PM EDT
Astronomical Twilight 5:00 AM EDT 9:27 PM EDT
Moon 2:04 AM EDT (8/31) 4:48 PM EDT (8/31)
Length of Visible Light 14h 06m
Length of Day
13h 09m
Waning Crescent, 21% of the Moon is Illuminated
Aug 31
Waning Crescent
Sep 5
New
Sep 12
First Quarter
Sep 19
Full
Sep 26
Last Quarter

Hourly Weather History & Observations

Time (EDT) Temp. Heat Index Dew Point Humidity Pressure Visibility Wind Dir Wind Speed Gust Speed Precip Events Conditions
12:53 AM 72.0 °F - 64.9 °F 78% 29.81 in 7.0 mi South 5.8 mph - N/A   Partly Cloudy
1:53 AM 72.0 °F - 64.9 °F 78% 29.82 in 7.0 mi Variable 3.5 mph - N/A   Clear
2:53 AM 70.0 °F - 64.9 °F 84% 29.80 in 6.0 mi SSW 8.1 mph - 0.00 in   Haze
3:53 AM 71.1 °F - 66.0 °F 84% 29.80 in 6.0 mi Variable 6.9 mph - N/A   Haze
4:53 AM 69.1 °F - 66.0 °F 90% 29.81 in 4.0 mi South 3.5 mph - N/A   Clear
5:53 AM 69.1 °F - 66.0 °F 90% 29.79 in 4.0 mi SSW 4.6 mph - N/A   Clear
6:53 AM 69.1 °F - 64.9 °F 87% 29.80 in 3.0 mi SSW 4.6 mph - N/A   Mostly Cloudy
7:53 AM 69.1 °F - 64.9 °F 87% 29.82 in 4.0 mi Variable 3.5 mph - N/A   Overcast
8:38 AM 71.1 °F - 66.0 °F 84% 29.88 in 4.0 mi SSW 6.9 mph - N/A   Haze
8:53 AM 71.1 °F - 66.0 °F 84% 29.83 in 4.0 mi SW 6.9 mph - N/A   Haze
9:53 AM 72.0 °F - 66.0 °F 81% 29.85 in 5.0 mi WSW 5.8 mph - N/A   Haze
10:12 AM 73.0 °F - 66.0 °F 79% 29.89 in 5.0 mi WSW 4.6 mph - N/A   Haze
10:36 AM 75.0 °F - 66.0 °F 73% 29.89 in 6.0 mi Variable 4.6 mph - N/A   Haze
10:49 AM 75.2 °F - 66.2 °F 73% 29.89 in 6.0 mi West 8.1 mph - N/A   Haze
10:53 AM 75.9 °F - 66.0 °F 71% 29.84 in 6.0 mi West 9.2 mph - N/A   Haze
11:53 AM 78.1 °F - 66.0 °F 66% 29.83 in 7.0 mi WSW 8.1 mph - N/A   Mostly Cloudy
12:53 PM 79.0 °F - 66.0 °F 64% 29.82 in 7.0 mi WNW 8.1 mph - N/A   Overcast
1:18 PM 80.1 °F 82.1 °F 66.0 °F 62% 29.87 in 8.0 mi WNW 10.4 mph - N/A   Scattered Clouds
1:53 PM 81.0 °F 83.3 °F 66.9 °F 62% 29.81 in 8.0 mi NNW 6.9 mph - N/A   Scattered Clouds
2:53 PM 81.0 °F 83.0 °F 66.0 °F 60% 29.79 in 8.0 mi NNW 9.2 mph - N/A   Scattered Clouds
3:53 PM 82.0 °F 84.1 °F 66.0 °F 58% 29.78 in 8.0 mi WNW 9.2 mph - N/A   Scattered Clouds
4:53 PM 81.0 °F 83.3 °F 66.9 °F 62% 29.79 in 7.0 mi WNW 12.7 mph - N/A   Scattered Clouds
5:53 PM 79.0 °F - 64.9 °F 62% 29.79 in 9.0 mi NW 13.8 mph - N/A   Scattered Clouds
6:53 PM 75.9 °F - 64.9 °F 69% 29.80 in 9.0 mi NNW 8.1 mph - N/A   Scattered Clouds
7:53 PM 73.9 °F - 66.0 °F 76% 29.82 in 10.0 mi NNW 5.8 mph - N/A   Mostly Cloudy
8:53 PM 71.1 °F - 64.0 °F 78% 29.85 in 10.0 mi Calm Calm - N/A   Clear
9:53 PM 69.1 °F - 64.9 °F 87% 29.86 in 9.0 mi Calm Calm - N/A   Mostly Cloudy
10:53 PM 70.0 °F - 66.0 °F 87% 29.86 in 9.0 mi SSE 3.5 mph - N/A   Mostly Cloudy
11:53 PM 66.0 °F - 64.0 °F 93% 29.86 in 4.0 mi Calm Calm - N/A   Scattered Clouds